Location: New Town
(33.2710°N, 90.7534°W)
Time: 01:01:14
(UTC+00:00)

SR - Visible Passes

Search period start: 12 May 2021 00:00
Search period end: 22 May 2021 00:00
Orbit: 573 x 882 km, 66.7° (Epoch: 11 May)

Date Brightness Start Highest point End Pass type
(mag) Time Alt. Az. Time Alt. Az. Time Alt. Az.
12 May ? 06:56:05 25° ENE 06:56:05 25° ENE 06:58:55 10° NE visible
12 May ? 08:35:28 30° WNW 08:35:42 31° NW 08:40:54 10° N visible
13 May ? 06:07:31 11° ENE 06:07:31 11° ENE 06:07:48 10° ENE visible
13 May ? 07:46:55 49° NNW 07:46:55 49° NNW 07:51:34 10° NNE visible
14 May ? 06:58:19 36° NE 06:58:19 36° NE 07:01:47 10° NNE visible
14 May ? 08:37:42 17° WNW 08:38:34 18° NW 08:42:28 10° N visible
15 May ? 06:09:41 19° ENE 06:09:41 19° ENE 06:11:31 10° NE visible
15 May ? 07:49:03 32° NW 07:49:03 32° NW 07:53:38 10° N visible
16 May ? 07:00:22 40° N 07:00:22 40° N 07:04:15 10° NNE visible
17 May ? 06:11:38 29° NE 06:11:38 29° NE 06:14:26 10° NNE visible
17 May ? 07:51:01 19° NW 07:51:10 19° NW 07:55:16 10° N visible
18 May ? 05:22:52 16° NE 05:22:52 16° NE 05:24:06 10° NE visible
18 May ? 07:02:14 32° NNW 07:02:14 32° NNW 07:06:22 10° N visible
19 May ? 06:13:25 36° N 06:13:25 36° N 06:16:56 10° NNE visible
19 May ? 07:52:58 10° WNW 07:54:11 11° NW 07:55:25 10° NNW visible
20 May ? 05:24:32 26° NE 05:24:32 26° NE 05:27:05 10° NNE visible
20 May ? 07:03:54 20° NW 07:03:54 20° NW 07:08:04 10° N visible
21 May ? 04:35:35 15° NE 04:35:35 15° NE 04:36:40 10° NE visible
21 May ? 06:14:57 33° NNW 06:14:57 33° NNW 06:19:05 10° N visible
